Flag for Mexico Weather past 2 weeks in Veracruz, Veracruz, Mexico

Now
68 °F

Passing clouds.


Feels Like: 68 °F
Forecast: 67 / 75 °F
Wind: No wind

Location: Gen. Heriberto Jara

Current Time: Mar 1, 2015 at 11:17:32 PM

Latest Report: Mar 1, 2015 at 10:47 PM


Visibility: 7 mi

Pressure: 30.16 "Hg

Humidity: 88%

Dew point: 64 °F

Location of VeracruzLocation

Historic Weather in Veracruz — Graph

°F

Veracruz temperature yesterday

Maximum temperature yesterday: 75 °F (at 12:44 PM)
Minimum temperature yesterday: 64 °F (at 5:42 AM)
Average temperature yesterday: 69 °F

Past Weeks' High & Low Weather Summary

 TemperatureHumidityPressure
High82 °F (Feb 16, 12:45 PM)94% (Feb 15, 5:49 AM)30.32 "Hg (Feb 15, 5:49 AM)
Low59 °F (Feb 15, 5:49 AM)47% (Feb 20, 12:45 PM)29.72 "Hg (Feb 25, 2:45 PM)
Average69 °F76%30.02 "Hg
* Reported Feb 15 5:49 AM — Mar 1 9:51 PM, Veracruz, Weather by CustomWeather, © 2015

Note: Actual official high and low records may vary slightly from our data, if they occured in-between our weather recording intervals... More about our weather records

Advertising

Veracruz weather history for previous 24 hours

 ConditionsComfort  
Time TempWeatherWind HumidityBarometerVisibility
9:51 PM
Sun, Mar 1
68 °FPassing clouds.3 mph88%30.16 "Hg7 mi
7:45 PM70 °FPassing clouds.8 mph83%30.12 "Hg6 mi
6:06 PM72 °FSunny.8 mph78%30.04 "Hg6 mi
4:41 PM75 °FSunny.9 mph69%30.07 "Hg6 mi
3:45 PM77 °FPassing clouds.8 mph65%30.07 "Hg7 mi
1:45 PM79 °FPassing clouds.5 mph61%30.11 "Hg7 mi
12:46 PM77 °FScattered clouds.2 mph65%30.13 "Hg6 mi
11:45 AM75 °FMostly cloudy.6 mph65%30.09 "Hg6 mi
10:40 AM73 °FOvercast.No wind69%30.18 "Hg5 mi
9:47 AM72 °FOvercast.3 mph73%30.18 "Hg5 mi
8:45 AM68 °FOvercast.2 mph83%30.11 "Hg5 mi
7:42 AM66 °FOvercast.3 mph83%30.16 "Hg5 mi
6:48 AM66 °FOvercast.5 mph88%30.14 "Hg5 mi
5:45 AM64 °FOvercast.5 mph88%30.07 "Hg5 mi
3:45 AM63 °FFog.No wind88%30.09 "Hg3 mi
2:45 AM63 °FPassing clouds.3 mph94%30.03 "Hg6 mi
12:50 AM66 °FOvercast.3 mph83%30.09 "Hg5 mi
Weather by CustomWeather, © 2015

See weather overviewHow to use our weather pages